Regional Weather Roundup
Issued by NWS

Home | Current Version | Previous Version | Text Only | Print | Product List | Glossary Off
Versions: 1 2 3 4 5 6 7 8 9 10 11 12 13 14 15 16 17 18 19 20 21 22 23 24 25 26 27 28 29 30 31 32 33 34 35 36 37 38 39 40 41 42 43 44 45 46 47 48 49 50

000
ASUS43 KDTX 252010
RWRMI
MICHIGAN HOURLY REGIONAL WEATHER ROUNDUP
NATIONAL WEATHER SERVICE DETROIT/PONTIAC MI
400 PM EDT SAT APR 25 2015

NOTE: "FAIR" INDICATES FEW OR NO CLOUDS BELOW 12,000 FEET WITH NO
SIGNIFICANT WEATHER AND/OR OBSTRUCTION TO VISIBILITY.

MIZ047>049-052>055-059>063-066>070-074>076-081>083-252100-
SOUTHEAST LOWER MICHIGAN

CITY           SKY/WX    TMP DP  RH WIND       PRES   REMARKS
ADRIAN         CLOUDY    47  26  44 SE14      29.81F
ALMA           MOSUNNY   53  29  40 NE12G18   29.84S
ANN ARBOR      CLOUDY    50  27  40 E8        29.81S
BAD AXE        SUNNY     46  23  41 NE9G16    29.89S
CARO           MOSUNNY   51  23  33 CALM      29.84F
DETROIT CITY   PTSUNNY   51  28  41 E8        29.81F
DETROIT        CLOUDY    50  25  37 E10       29.82F
FLINT          PTSUNNY   55  26  32 NE12      29.82S
GROSSE ILE     CLOUDY    52  28  40 E7        29.80F
HILLSDALE      CLOUDY    46  29  52 E10       29.78F
HOWELL         PTSUNNY   52  24  32 SE7       29.80F

CITY           SKY/WX    TMP DP  RH WIND       PRES   REMARKS
JACKSON        PTSUNNY   50  30  46 E10       29.79F
LAMBERTVILLE   CLOUDY    45  28  53 E10       29.81F
LANSING        PTSUNNY   55  30  38 E9        29.81S
LAPEER         FAIR      49  19  30 E10G17    29.83F
MASON          PTSUNNY   52  28  39 E9        29.80F
MONROE         CLOUDY    46  30  53 E12       29.80F
MT. CLEMENS    PTSUNNY   52  25  34 NE12      29.79F
PONTIAC        PTSUNNY   53  23  31 E13       29.79F
PORT HOPE        N/A     39  30  70 NE8       29.89F WCI  33
PORT HURON     MOSUNNY   46  28  49 NE13G18   29.84F
TRI CITIES     MOSUNNY   50  30  46 NE21G26   29.86F
MIDLAND        FAIR      49  26  40 NE15G24   29.87S
TROY           PTSUNNY   53  24  32 E3        29.82F
SAGINAW HB     MOSUNNY   52  21  30 NE13      29.84S
$$
MIZ043>046-050>051-056>058-064>065-071>073-077>080-252100-
SOUTHWEST LOWER MICHIGAN

CITY           SKY/WX    TMP DP  RH WIND       PRES   REMARKS
BATTLE CREEK   CLOUDY    48  37  65 E8        29.80F
BENTON HARBOR  LGT RAIN  47  42  83 E7        29.80R
BIG RAPIDS     MOSUNNY   53  22  28 E14       29.82S
COLDWATER      CLOUDY    46  33  60 E8        29.79S
FREMONT        FAIR      56  23  28 SE8       29.80F
HOLLAND        CLOUDY    52  37  56 E9        29.81F
GRAND RAPIDS   CLOUDY    54  31  41 E14       29.81S
IONIA          CLOUDY    54  27  35 E14       29.81S
KALAMAZOO      CLOUDY    48  38  68 E9        29.81S
LUDINGTON      MOSUNNY   58  17  19 E10G16    29.82F
MOUNT PLEASANT SUNNY     52  21  29 NE9       29.85R
MUSKEGON       PTSUNNY   56  32  40 E12       29.81F
SOUTH HAVEN    CLOUDY    49  39  68 E6        29.81S
$$
MIZ016>042-252100-
NORTHERN LOWER MICHIGAN

CITY           SKY/WX    TMP DP  RH WIND       PRES   REMARKS
BEAVER ISLAND  SUNNY     48  18  29 E10       29.92F
BELLAIRE       CLOUDY    55  16  21 NE12G17   29.86F
CADILLAC       MOSUNNY   53  19  25 E9G17     29.82F
CHARLEVOIX     SUNNY     48  28  47 N13       29.91F
FRANKFORT      PTSUNNY   52  13  21 N8        29.86S
GAYLORD        SUNNY     51  18  27 NE8       29.85F
GRAYLING       CLOUDY    52  17  25 CALM      29.85F
HARBOR SPRINGS SUNNY     51  20  29 E12G20    29.90F
HOUGHTON LAKE  MOSUNNY   51  18  27 E10       29.84F
MANISTEE       MOSUNNY   52  27  37 NW10      29.83F
OSCODA         SUNNY     45  22  40 NE8       29.90F
PELLSTON       SUNNY     49  19  30 NE13G23   29.92F
ROGERS CITY    SUNNY     44  26  49 NE6       29.94F
TRAVERSE CITY  CLOUDY    50  22  33 N13       29.85F
$$
MIZ007>008-015-252100-
EASTERN UPPER MICHIGAN

CITY           SKY/WX    TMP DP  RH WIND       PRES   REMARKS
KINROSS        SUNNY     50  21  32 N8        29.91F
MACKINAC ISLAN SUNNY     47  20  33 E6        29.92F
NEWBERRY       SUNNY     48  24  38 N7G18     29.92F
S. S. MARIE    SUNNY     49  23  36 NW15      29.91F
MUNISING         N/A     38  25  59 NE17      29.97S WCI  28
$$
MIZ004>006-011>014-085-252100-
CENTRAL UPPER MICHIGAN

CITY           SKY/WX    TMP DP  RH WIND       PRES   REMARKS
MANISTIQUE     SUNNY     47  22  37 SE12      29.92F
ESCANABA       SUNNY     48  21  34 SE16      29.92F
MENOMINEE      CLOUDY    45  19  36 E17G24    29.92F
SAWYER-GWINN   SUNNY     43  19  39 NE20      29.95F
$$
MIZ001>003-009>011-084-252100-
WESTERN UPPER MICHIGAN

CITY           SKY/WX    TMP DP  RH WIND       PRES   REMARKS
IRON MOUNTAIN  SUNNY     54  13  19 NE9G20    29.88F
HOUGHTON       SUNNY     42  21  43 E13       29.99F
COPPER HARBOR    N/A     37  30  75 NE6       30.02F WCI  32
IRONWOOD       SUNNY     48  28  46 N10G16    29.90S
$$

ABBREVIATIONS USED IN REMARKS
   TC - TEMPERATURE IN CELSIUS
  WCI - WIND CHILL INDEX
   HX - HEAT INDEX
  VSB - VISIBILITY



USA.gov is the U.S. government's official web portal to all federal, state and local government web resources and services.